THORAD AGENA D DEB, 42502

Orbit data source: Space-Track

THORAD AGENA D DEB, 42502 is space debris in SSO originally from a launch on Wed, 08 Apr 1970 UTC launched from the Air Force Western Test Range (AFWTR). Debris objects in space refer to the collection of defunct objects orbiting the Earth. Examples of debris include non-operational satellites, rocket bodies, and fragments generated from explosions, collisions, or faulty payload assembly.

Loading next visibility...
Identifier
42502, 1970-025RG
Orbit
SSO
Country
Flag of USUS
Related business
Manufacturer
Unknown
Mission
Spacecraft
Bus & Motor
Unknown
Mass
Unknown
Launch date (UTC)
1970-04-08 (56 years ago)
Launch vehicle
Unknown
Launch site
Air Force Western Test Range (AFWTR)
Object type
Payload
Rocket body
Debris
Shape & HBR
Unknown shape, 0.1 m
Radar Cross Section
Medium (>0.1 m² and <1 m²)

Expand to show TLE details & history
Last TLE update: 2 days ago

TLE from 2 days ago
0 THORAD AGENA D DEB
1 42502U 70025RG  26170.98064878  .00000012  00000-0  81042-4 0  9995
2 42502  99.7236  84.3553 0013447 200.4446 219.5780 13.54868212621773
Epoch: 2026-06-19T23:32Z
TLE epoch observation values (Epoch: 2026-06-19T23:32:08.054Z)
Latitude
58.6279°
Longitude
166.88407°
Altitude
1,071.933 km
Speed
7.318 km/s
True Right ascension
04h 32m 28s
True Declination
58° 28' 53"
Sunlit
Object was in daylight at epoch
Visualization orbit readout
Latitude
Unknown
Longitude
Unknown
Altitude
Unknown
Speed
Unknown
Apparent Right ascension
Unknown
Apparent Declination
Unknown
Sunlit
N/A
Visualization observer readout
Local Sidereal Time
21:49:43
Azimuth
Unknown
Elevation
Unknown
Doppler factor
Unknown
Orbital elements
Apogee altitude
1,061.688 km
Perigee altitude
1,041.706 km
Semi-major axis
7,429.834 km
Eccentricity
0.00134
Inclination
99.7236°
RAAN
84.3553°
Arg. of periapsis
200.4446°
True anomaly
219.47995°
Mean anomaly
219.578°
Eccentric anomaly
219.52896°
Mean motion
3.38902 °/min
Orbital period
106.23 mins
BSTAR
0.000081042

Documentation

Showing up to 5 results
|